Flag for U.S.A. Weather past 2 weeks in Syracuse, New York, U.S.A.

Now
5 °F

Partly sunny.


Feels Like: -2 °F
Forecast: -1 / 13 °F
Wind: 3 mph from West

Location: Syracuse Hancock International Airport

Current Time: Jan 31, 2015 at 12:09:25 PM

Latest Report: Jan 31, 2015 at 10:54 AM


Visibility: 10 mi

Pressure: 30.34 "Hg

Humidity: 69%

Dew point: -3 °F

Location of SyracuseLocation

Historic Weather in Syracuse — Graph

°F

Syracuse temperature yesterday

Maximum temperature yesterday: 27 °F (at 2:54 AM)
Minimum temperature yesterday: 5 °F (at 11:54 PM)
Average temperature yesterday: 19 °F

Past Weeks' High & Low Weather Summary

 TemperatureHumidityPressure
High41 °F (Jan 18, 1:54 PM)100% (Jan 18, 8:54 PM)30.39 "Hg (Jan 18, 8:54 PM)
Low-7 °F (Jan 31, 7:54 AM)29% (Jan 29, 4:54 PM)29.45 "Hg (Jan 24, 8:54 PM)
Average18 °F77%30.01 "Hg
* Reported Jan 16 10:54 AM — Jan 31 10:10 AM, Syracuse, Weather by CustomWeather, © 2014

Note: Actual official high and low records may vary slightly from our data, if they occured in-between our weather recording intervals... More about our weather records

Advertising

Syracuse weather history for previous 24 hours

 ConditionsComfort  
Time TempWeatherWind HumidityBarometerVisibility
10:10 AM
Jan 31
2 °FPartly sunny.No wind72%30.34 "Hg10 mi
9:57 AM0 °FPartly sunny.3 mph78%30.32 "Hg10 mi
8:54 AM-3 °FScattered clouds.5 mph75%30.34 "Hg10 mi
7:54 AM-7 °FPassing clouds.No windN/A30.32 "Hg10 mi
6:54 AM-5 °FPassing clouds.No wind87%30.32 "Hg10 mi
5:54 AM-3 °FPassing clouds.5 mph82%30.31 "Hg10 mi
4:54 AM-1 °FOvercast.5 mph82%30.31 "Hg10 mi
3:54 AM0 °FLight snow. Overcast.5 mph87%30.31 "Hg9 mi
2:54 AM2 °FLight snow. Overcast.6 mph88%30.31 "Hg8 mi
1:54 AM3 °FLight snow. Ice fog.7 mph91%30.29 "Hg2 mi
12:54 AM3 °FLight snow. Ice fog.3 mph91%30.27 "Hg5 mi
11:54 PM
Jan 30
5 °FLight snow. Ice fog.7 mph87%30.26 "Hg2 mi
10:54 PM7 °FLight snow. Ice fog.10 mph91%30.25 "Hg2 mi
9:54 PM9 °FLight snow. Ice fog.12 mph88%30.24 "Hg2 mi
8:54 PM13 °FLight snow. Mostly cloudy.17 mph74%30.22 "Hg5 mi
7:54 PM14 °FLight snow. Overcast.15 mph71%30.21 "Hg9 mi
6:54 PM15 °FLight snow. Overcast.16 mph74%30.19 "Hg8 mi
6:02 PM15 °FLight snow. Mostly cloudy.14 mph80%30.15 "Hg8 mi
5:54 PM14 °FLight snow. Mostly cloudy.13 mph87%30.16 "Hg7 mi
4:54 PM14 °FLight snow. Ice fog.14 mph92%30.14 "Hg1 mi
4:03 PM14 °FLight snow. Ice fog.16 mph87%30.12 "Hg1 mi
3:54 PM14 °FLight snow. Ice fog.17 mph87%30.12 "Hg2 mi
3:01 PM16 °FLight snow. Ice fog.13 mph87%30.08 "Hg1 mi
2:02 PM16 °FLight snow. Ice fog.18 mph84%30.05 "Hg2 mi
1:54 PM16 °FLight snow. Ice fog.18 mph80%30.06 "Hg1 mi
12:54 PM18 °FMostly cloudy.18 mph80%30.03 "Hg9 mi
Weather by CustomWeather, © 2014

See weather overviewHow to use our weather pages